Terminal Aerodrome Forecast
Issued by NWS

Home | Current Version | Previous Version | Graphics & Text | Print | Product List | Glossary On
Versions: 1 2 3 4 5 6 7 8 9 10 11 12 13 14 15 16 17
000
FTUS43 KBIS 300522
TAFMOT
TAF
KMOT 300522Z 3006/3106 26007KT P6SM SCT060
     FM300900 24008KT P6SM VCSH SCT060 BKN100
     FM301200 25009KT P6SM BKN100
     FM301500 30011KT P6SM SCT080
     FM301700 31015G23KT P6SM SKC
     FM310100 28008KT P6SM SCT070=

USA.gov is the U.S. government's official web portal to all federal, state and local government web resources and services.